KT2UU-13 Weather Reports


time (UTC)temp
C
wind
direction
speed
KPH
gust
KPH
rain 1hr
cm
rain 24hr
cm
rain mn
cm
humidity
%
barometer
mb
20260901062804 22 211 0.0 0.0 0.00 0.00 0.00 98 1020.6
20260901062300 22 211 0.0 0.0 0.00 0.00 0.00 98 1020.6
20260901061755 22 211 0.0 0.0 0.00 0.00 0.00 98 1020.5
20260901061255 22 211 0.0 0.0 0.00 0.00 0.00 98 1020.7
20260901060750 22 211 0.0 0.0 0.00 0.00 0.00 98 1020.6
20260901060246 22 204 0.0 0.0 0.00 0.00 0.00 98 1020.5
20260901055741 22 211 0.0 0.0 0.00 0.00 0.00 98 1020.6
20260901055237 22 211 0.0 0.0 0.00 0.00 0.00 98 1020.7
20260901054734 22 211 0.0 0.0 0.00 0.00 0.00 98 1020.7
20260901054230 22 211 0.0 0.0 0.00 0.00 0.00 98 1020.6
20260901053726 22 211 0.0 0.0 0.00 0.00 0.00 98 1020.5
20260901053221 22 211 0.0 0.0 0.00 0.00 0.00 98 1020.6
20260901052716 22 211 0.0 0.0 0.00 0.00 0.00 98 1020.4
20260901052212 22 211 0.0 0.0 0.00 0.00 0.00 98 1020.5
20260901051711 22 211 0.0 0.0 0.00 0.00 0.00 98 1020.6
20260901051211 22 211 0.0 0.0 0.00 0.00 0.00 98 1020.5
20260901050706 22 211 0.0 0.0 0.00 0.00 0.00 98 1020.5
20260901050201 22 211 0.0 0.0 0.00 0.00 0.00 98 1020.4
20260901045656 22 211 0.0 0.0 0.00 0.00 0.00 98 1020.6
20260901045151 22 211 0.0 0.0 0.00 0.00 0.00 98 1020.4
20260901044647 22 211 0.0 0.0 0.00 0.00 0.00 97 1020.7
20260901044143 22 211 0.0 0.0 0.00 0.00 0.00 97 1020.5
20260901043638 22 211 0.0 0.0 0.00 0.00 0.00 97 1020.6
20260901043134 22 211 0.0 0.0 0.00 0.00 0.00 96 1020.5
20260901042633 23 211 0.0 0.0 0.00 0.00 0.00 96 1020.6
20260901042128 23 211 0.0 0.0 0.00 0.00 0.00 96 1020.6
20260901041624 23 211 0.0 0.0 0.00 0.00 0.00 96 1020.4
20260901041119 23 211 0.0 0.0 0.00 0.00 0.00 96 1020.5
20260901040618 23 211 0.0 0.0 0.00 0.00 0.00 96 1020.5
20260901040112 23 211 0.0 0.0 0.00 0.00 0.00 96 1020.5
20260901035611 23 204 0.0 0.0 0.00 0.00 0.00 96 1020.5
20260901035110 23 211 0.0 0.0 0.00 0.00 0.00 96 1020.4
20260901034609 23 211 0.0 0.0 0.00 0.00 0.00 96 1020.5
20260901034104 23 211 0.0 0.0 0.00 0.00 0.00 95 1020.4
20260901033603 23 211 0.0 0.0 0.00 0.00 0.00 95 1020.4
20260901033058 23 211 0.0 0.0 0.00 0.00 0.00 95 1020.2
20260901032556 23 211 0.0 0.0 0.00 0.00 0.00 95 1020.5
20260901032051 23 211 0.0 0.0 0.00 0.00 0.00 95 1020.4
20260901031547 23 211 0.0 0.0 0.00 0.00 0.00 94 1020.4
20260901031042 23 211 0.0 0.0 0.00 0.00 0.00 94 1020.3
20260901030536 23 211 0.0 0.0 0.00 0.00 0.00 94 1020.1
20260901030036 23 211 0.0 0.0 0.00 0.00 0.00 93 1020.2
20260901025530 23 211 0.0 0.0 0.00 0.00 0.00 93 1020.5
20260901025025 23 211 0.0 0.0 0.00 0.00 0.00 93 1020.5
20260901024520 24 211 0.0 0.0 0.00 0.00 0.00 93 1020.2
20260901024019 24 211 0.0 0.0 0.00 0.00 0.00 93 1020.4
20260901023513 24 211 0.0 0.0 0.00 0.00 0.00 92 1020.3
20260901023008 24 211 0.0 0.0 0.00 0.00 0.00 92 1020.1
20260901022503 24 211 0.0 0.0 0.00 0.00 0.00 91 1020.2
20260901021958 24 211 0.0 0.0 0.00 0.00 0.00 91 1020.2
20260901021454 24 211 0.0 0.0 0.00 0.00 0.00 91 1020.2
20260901020949 24 211 0.0 0.0 0.00 0.00 0.00 90 1020.3
20260901020445 25 211 0.0 0.0 0.00 0.00 0.00 90 1020.1
20260901015943 25 211 0.0 0.0 0.00 0.00 0.00 89 1020.4
20260901015440 24 211 0.0 0.0 0.00 0.00 0.00 88 1020.0
20260901014939 25 211 0.0 0.0 0.00 0.00 0.00 90 1020.0
20260901014436 25 211 0.0 0.0 0.00 0.00 0.00 90 1019.9
20260901013931 25 211 0.0 0.0 0.00 0.00 0.00 89 1019.9
20260901013427 25 211 0.0 0.0 0.00 0.00 0.00 90 1019.9
20260901012922 25 211 0.0 0.0 0.00 0.00 0.00 89 1020.0
20260901012416 25 211 0.0 0.0 0.00 0.00 0.00 88 1019.8
20260901011912 25 211 0.0 0.0 0.00 0.00 0.00 88 1019.8
20260901011408 25 211 0.0 0.0 0.00 0.00 0.00 87 1019.6
20260901010906 25 211 0.0 0.0 0.00 0.00 0.00 86 1019.5
20260901010401 25 211 0.0 0.0 0.00 0.00 0.00 86 1019.4
20260901005859 26 211 0.0 0.0 0.00 0.00 0.00 86 1019.6
20260901005355 26 211 0.0 0.0 0.00 0.00 0.00 87 1019.5
20260901004845 26 212 0.0 0.0 0.00 0.00 0.00 86 1019.4
20260901004344 26 211 0.0 0.0 0.00 0.00 0.00 84 1019.5
20260901003838 26 211 0.0 0.0 0.00 0.00 0.00 85 1019.3
20260901003334 26 211 0.0 0.0 0.00 0.00 0.00 85 1019.3
20260901002832 27 211 0.0 0.0 0.00 0.00 0.00 85 1019.5
20260901002326 27 205 0.0 0.0 0.00 0.00 0.00 84 1019.4
20260901001821 27 211 0.0 0.0 0.00 0.00 0.00 83 1019.4
20260901001316 27 211 0.0 0.0 0.00 0.00 0.00 80 1019.3
20260901000811 28 211 0.0 0.0 0.00 0.00 0.00 79 1019.3
20260901000307 28 211 0.0 0.0 0.00 0.00 0.00 78 1019.3
20260831235804 29 211 0.0 0.0 0.00 0.00 0.00 80 1019.0
20260831235301 29 211 0.0 0.0 0.00 0.00 0.00 76 1019.4
20260831234755 30 211 0.0 0.0 0.00 0.00 0.00 76 1019.4
20260831234255 30 211 0.0 0.0 0.00 0.00 0.00 74 1019.3
20260831233751 31 211 0.0 0.0 0.00 0.00 0.00 71 1019.6
20260831233246 32 211 0.0 0.0 0.00 0.00 0.00 65 1019.6
20260831232741 32 211 0.0 0.0 0.00 0.00 0.00 66 1019.6
20260831232237 31 211 0.0 0.0 0.00 0.00 0.00 68 1019.6
20260831231733 32 211 0.0 0.0 0.00 0.00 0.00 63 1019.4
20260831231230 34 211 0.0 0.0 0.00 0.00 0.00 58 1019.3
20260831230724 34 211 0.0 0.0 0.00 0.00 0.00 55 1019.5
20260831230219 35 211 0.0 0.0 0.00 0.00 0.00 54 1019.5
20260831225718 35 211 0.0 0.0 0.00 0.00 0.00 51 1019.4
20260831225213 35 211 0.0 0.0 0.00 0.00 0.00 50 1019.5
20260831224703 33 211 0.0 0.0 0.00 0.00 0.00 57 1019.7
20260831224158 33 211 0.0 0.0 0.00 0.00 0.00 53 1019.5
20260831223654 34 211 0.0 0.0 0.00 0.00 0.00 52 1019.7
20260831223150 34 211 0.0 0.0 0.00 0.00 0.00 53 1019.6
20260831222646 33 211 0.0 0.0 0.00 0.00 0.00 52 1019.7
20260831222141 34 211 0.0 0.0 0.00 0.00 0.00 50 1019.9
20260831221637 34 211 0.0 1.6 0.00 0.00 0.00 50 1019.8
20260831221131 33 211 1.6 3.2 0.00 0.00 0.00 50 1019.7
20260831220627 34 211 4.8 4.8 0.00 0.00 0.00 48 1019.8
20260831220122 33 211 0.0 0.0 0.00 0.00 0.00 52 1019.8
20260831215617 33 211 0.0 0.0 0.00 0.00 0.00 50 1019.8
20260831215113 35 211 0.0 0.0 0.00 0.00 0.00 49 1020.2
20260831214610 34 211 4.8 4.8 0.00 0.00 0.00 50 1019.9
20260831214106 34 211 1.6 3.2 0.00 0.00 0.00 49 1020.0
20260831213603 35 211 3.2 4.8 0.00 0.00 0.00 50 1019.9
20260831213057 35 211 0.0 1.6 0.00 0.00 0.00 49 1019.9
20260831212554 34 211 0.0 1.6 0.00 0.00 0.00 52 1020.0
20260831212050 34 211 0.0 4.8 0.00 0.00 0.00 53 1020.1
20260831211548 34 211 1.6 4.8 0.00 0.00 0.00 50 1020.0
20260831211048 33 211 0.0 0.0 0.00 0.00 0.00 51 1020.0
20260831210538 33 211 0.0 3.2 0.00 0.00 0.00 52 1020.0
20260831210034 33 211 4.8 4.8 0.00 0.00 0.00 53 1020.2
20260831205534 33 211 3.2 6.4 0.00 0.00 0.00 51 1020.1
20260831205029 33 211 0.0 6.4 0.00 0.00 0.00 52 1020.3
20260831204524 34 211 3.2 3.2 0.00 0.00 0.00 51 1020.4
20260831204022 34 211 0.0 3.2 0.00 0.00 0.00 50 1020.5
20260831203517 33 206 0.0 3.2 0.00 0.00 0.00 53 1020.3
20260831203016 33 206 1.6 4.8 0.00 0.00 0.00 52 1020.3
20260831202510 33 211 3.2 6.4 0.00 0.00 0.00 54 1020.2
20260831202009 33 211 0.0 1.6 0.00 0.00 0.00 52 1020.4
20260831201508 33 211 1.6 4.8 0.00 0.00 0.00 54 1020.4
20260831201004 33 211 3.2 9.7 0.00 0.00 0.00 54 1020.6
20260831200500 32 211 3.2 4.8 0.00 0.00 0.00 57 1020.5
20260831195954 33 211 0.0 6.4 0.00 0.00 0.00 56 1020.6
20260831195450 33 211 4.8 6.4 0.00 0.00 0.00 54 1020.7
20260831194944 33 211 0.0 0.0 0.00 0.00 0.00 56 1021.0
20260831194440 33 211 0.0 1.6 0.00 0.00 0.00 56 1020.9
20260831193939 33 211 0.0 1.6 0.00 0.00 0.00 55 1020.8
20260831193435 33 211 1.6 1.6 0.00 0.00 0.00 55 1021.0
20260831192930 32 211 1.6 3.2 0.00 0.00 0.00 56 1020.9
20260831192430 32 211 1.6 3.2 0.00 0.00 0.00 57 1021.0
20260831191925 33 211 3.2 4.8 0.00 0.00 0.00 55 1020.8
20260831191421 33 211 1.6 3.2 0.00 0.00 0.00 56 1021.1
20260831190917 32 211 1.6 6.4 0.00 0.00 0.00 58 1020.8
20260831190412 32 211 0.0 3.2 0.00 0.00 0.00 59 1021.0
20260831185911 32 210 3.2 4.8 0.00 0.00 0.00 62 1021.2
20260831185408 32 211 1.6 1.6 0.00 0.00 0.00 59 1021.1
20260831184907 32 211 0.0 0.0 0.00 0.00 0.00 56 1021.3
20260831184402 32 211 1.6 3.2 0.00 0.00 0.00 58 1021.4
20260831183857 32 211 0.0 0.0 0.00 0.00 0.00 58 1021.5
20260831183356 32 211 1.6 1.6 0.00 0.00 0.00 57 1021.3
20260831182856 31 211 0.0 0.0 0.00 0.00 0.00 63 1021.3
20260831182351 31 211 0.0 3.2 0.00 0.00 0.00 61 1021.4
20260831181847 31 211 0.0 3.2 0.00 0.00 0.00 62 1021.5
20260831181342 32 211 0.0 4.8 0.00 0.00 0.00 61 1021.6
20260831180836 31 211 0.0 4.8 0.00 0.00 0.00 64 1021.5
20260831180331 32 211 1.6 4.8 0.00 0.00 0.00 64 1021.7
20260831175830 31 211 0.0 4.8 0.00 0.00 0.00 61 1021.7
20260831175327 31 211 0.0 4.8 0.00 0.00 0.00 64 1021.8
20260831174823 32 211 1.6 6.4 0.00 0.00 0.00 65 1021.7
20260831174318 32 211 1.6 3.2 0.00 0.00 0.00 64 1021.8
20260831173817 31 211 1.6 1.6 0.00 0.00 0.00 63 1021.9
20260831173311 32 211 0.0 4.8 0.00 0.00 0.00 62 1022.0
20260831172806 31 211 0.0 1.6 0.00 0.00 0.00 61 1021.8
20260831172305 31 211 0.0 3.2 0.00 0.00 0.00 62 1022.1
20260831171801 31 211 0.0 1.6 0.00 0.00 0.00 61 1021.9
20260831171259 31 211 0.0 3.2 0.00 0.00 0.00 63 1022.0
20260831170755 30 211 0.0 1.6 0.00 0.00 0.00 67 1022.1
20260831170251 30 210 0.0 3.2 0.00 0.00 0.00 70 1022.0
20260831165747 30 211 0.0 6.4 0.00 0.00 0.00 70 1022.2
20260831165244 30 206 1.6 3.2 0.00 0.00 0.00 73 1022.1
20260831164739 30 211 0.0 1.6 0.00 0.00 0.00 70 1022.2
20260831164235 30 211 3.2 4.8 0.00 0.00 0.00 71 1022.3
20260831163730 30 211 6.4 6.4 0.00 0.00 0.00 70 1022.4
20260831163226 30 211 0.0 6.4 0.00 0.00 0.00 70 1022.6
20260831162724 30 211 0.0 3.2 0.00 0.00 0.00 71 1022.6
20260831162218 30 211 3.2 4.8 0.00 0.00 0.00 70 1022.6
20260831161713 30 211 0.0 3.2 0.00 0.00 0.00 71 1022.8
20260831161210 30 211 1.6 3.2 0.00 0.00 0.00 72 1022.9
20260831160709 30 211 1.6 1.6 0.00 0.00 0.00 72 1022.6
20260831160204 30 211 0.0 3.2 0.00 0.00 0.00 73 1022.8
20260831155703 30 211 0.0 3.2 0.00 0.00 0.00 74 1022.8
20260831155159 30 211 0.0 3.2 0.00 0.00 0.00 75 1022.9
20260831154655 30 211 0.0 0.0 0.00 0.00 0.00 76 1023.1
20260831154150 29 211 0.0 0.0 0.00 0.00 0.00 75 1022.9
20260831153649 28 211 0.0 3.2 0.00 0.00 0.00 76 1022.7
20260831153146 28 210 0.0 4.8 0.00 0.00 0.00 78 1022.9
20260831152641 28 211 0.0 1.6 0.00 0.00 0.00 78 1022.9
20260831152137 28 211 0.0 0.0 0.00 0.00 0.00 78 1023.0
20260831151637 28 211 0.0 4.8 0.00 0.00 0.00 78 1022.9
20260831151131 28 211 0.0 0.0 0.00 0.00 0.00 78 1022.8
20260831150626 28 211 3.2 3.2 0.00 0.00 0.00 77 1022.9
20260831150121 28 211 0.0 0.0 0.00 0.00 0.00 79 1023.0
20260831145615 28 211 1.6 3.2 0.00 0.00 0.00 78 1022.9
20260831145112 27 211 0.0 0.0 0.00 0.00 0.00 80 1023.2
20260831144607 27 211 1.6 3.2 0.00 0.00 0.00 80 1023.0
20260831144102 27 211 0.0 0.0 0.00 0.00 0.00 81 1022.9
20260831143557 27 211 0.0 0.0 0.00 0.00 0.00 82 1022.9
20260831143052 27 211 0.0 0.0 0.00 0.00 0.00 82 1022.9
20260831142549 27 211 0.0 3.2 0.00 0.00 0.00 82 1022.8
20260831142044 26 204 0.0 0.0 0.00 0.00 0.00 83 1022.7
20260831141543 26 210 0.0 0.0 0.00 0.00 0.00 83 1022.7
20260831141038 27 210 0.0 0.0 0.00 0.00 0.00 85 1022.7
20260831140538 26 210 0.0 0.0 0.00 0.00 0.00 85 1022.6
20260831140038 26 210 0.0 0.0 0.00 0.00 0.00 85 1022.5
20260831135535 26 210 0.0 0.0 0.00 0.00 0.00 87 1022.7
20260831135031 25 210 0.0 1.6 0.00 0.00 0.00 87 1022.8
20260831134526 25 210 3.2 3.2 0.00 0.00 0.00 87 1022.8
20260831134021 25 210 0.0 0.0 0.00 0.00 0.00 89 1022.8
20260831133516 25 210 0.0 0.0 0.00 0.00 0.00 89 1022.8
20260831133011 25 210 0.0 3.2 0.00 0.00 0.00 89 1022.9
20260831132507 25 210 1.6 1.6 0.00 0.00 0.00 88 1022.9
20260831132006 25 210 0.0 0.0 0.00 0.00 0.00 88 1023.0
20260831131506 26 210 0.0 0.0 0.00 0.00 0.00 86 1023.0
20260831131002 26 210 0.0 0.0 0.00 0.00 0.00 86 1022.7
20260831130457 25 210 0.0 0.0 0.00 0.00 0.00 87 1022.8
20260831125956 25 210 0.0 0.0 0.00 0.00 0.00 86 1022.8
20260831125451 25 210 0.0 0.0 0.00 0.00 0.00 88 1023.0
20260831124947 25 210 0.0 0.0 0.00 0.00 0.00 88 1022.7
20260831124443 25 210 0.0 0.0 0.00 0.00 0.00 88 1022.6
20260831123938 24 210 0.0 0.0 0.00 0.00 0.00 91 1022.9
20260831123437 24 210 0.0 0.0 0.00 0.00 0.00 93 1022.7
20260831122932 23 210 0.0 0.0 0.00 0.00 0.00 97 1022.6
20260831122427 23 210 0.0 0.0 0.00 0.00 0.00 99 1022.5
20260831121922 23 210 0.0 0.0 0.00 0.00 0.00 99 1022.6
20260831121418 21 210 0.0 0.0 0.00 0.00 0.00 99 1022.4
20260831120914 22 210 0.0 0.0 0.00 0.00 0.00 99 1022.5
20260831120408 22 210 0.0 0.0 0.00 0.00 0.00 99 1022.5
20260831115908 21 210 0.0 0.0 0.00 0.00 0.00 99 1022.4
20260831115404 21 210 0.0 0.0 0.00 0.00 0.00 99 1022.4
20260831114903 21 210 0.0 0.0 0.00 0.00 0.00 99 1022.3
20260831114403 20 210 0.0 0.0 0.00 0.00 0.00 99 1022.3
20260831113859 20 210 0.0 0.0 0.00 0.00 0.00 99 1022.2
20260831113354 20 210 0.0 0.0 0.00 0.00 0.00 99 1022.0
20260831112853 20 210 0.0 0.0 0.00 0.00 0.00 99 1022.1
20260831112343 20 210 0.0 0.0 0.00 0.00 0.00 99 1022.1
20260831111838 20 210 0.0 0.0 0.00 0.00 0.00 99 1021.7
20260831111334 20 210 0.0 0.0 0.00 0.00 0.00 99 1022.0
20260831110829 20 210 0.0 0.0 0.00 0.00 0.00 99 1021.7
20260831110324 20 210 0.0 0.0 0.00 0.00 0.00 99 1021.7
20260831105822 20 210 0.0 0.0 0.00 0.00 0.00 99 1021.6
20260831105318 20 210 0.0 0.0 0.00 0.00 0.00 99 1021.8
20260831104813 20 210 0.0 0.0 0.00 0.00 0.00 99 1021.6
20260831104310 20 210 0.0 0.0 0.00 0.00 0.00 99 1021.4
20260831103809 20 210 0.0 0.0 0.00 0.00 0.00 99 1021.5
20260831103305 20 210 0.0 0.0 0.00 0.00 0.00 99 1021.4
20260831102759 20 210 0.0 0.0 0.00 0.00 0.00 99 1021.2
20260831102300 20 210 0.0 0.0 0.00 0.00 0.00 99 1021.4
20260831101755 20 210 0.0 0.0 0.00 0.00 0.00 99 1021.5
20260831101251 20 210 0.0 0.0 0.00 0.00 0.00 99 1021.3
20260831100747 20 210 0.0 0.0 0.00 0.00 0.00 99 1021.4
20260831100243 20 210 0.0 0.0 0.00 0.00 0.00 99 1021.5
20260831095742 20 210 0.0 0.0 0.00 0.00 0.00 99 1021.4
20260831095237 20 210 0.0 0.0 0.00 0.00 0.00 99 1021.5
20260831094736 20 210 0.0 0.0 0.00 0.00 0.00 99 1021.5
20260831094227 21 210 0.0 0.0 0.00 0.00 0.00 99 1021.5
20260831093723 21 210 0.0 0.0 0.00 0.00 0.00 99 1021.5
20260831093218 21 210 0.0 0.0 0.00 0.00 0.00 99 1021.3
20260831092715 21 210 0.0 0.0 0.00 0.00 0.00 99 1021.2
20260831092210 21 210 0.0 0.0 0.00 0.00 0.00 99 1021.3
20260831091709 21 210 0.0 0.0 0.00 0.00 0.00 99 1021.3
20260831091206 21 210 0.0 0.0 0.00 0.00 0.00 99 1021.4
20260831090705 21 210 0.0 0.0 0.00 0.00 0.00 99 1021.1
20260831090202 21 210 0.0 0.0 0.00 0.00 0.00 99 1021.3
20260831085657 21 202 0.0 0.0 0.00 0.00 0.00 99 1021.1
20260831085152 21 210 0.0 0.0 0.00 0.00 0.00 99 1021.1
20260831084648 21 210 0.0 0.0 0.00 0.00 0.00 99 1021.0
20260831084144 21 210 0.0 0.0 0.00 0.00 0.00 99 1021.0
20260831083639 21 210 0.0 0.0 0.00 0.00 0.00 99 1021.2
20260831083134 21 210 0.0 0.0 0.00 0.00 0.00 99 1020.9
20260831082633 21 210 0.0 0.0 0.00 0.00 0.00 99 1020.9
20260831082128 21 210 0.0 0.0 0.00 0.00 0.00 99 1020.8
20260831081624 21 210 0.0 0.0 0.00 0.00 0.00 99 1020.8
20260831081120 21 210 0.0 0.0 0.00 0.00 0.00 99 1020.8
20260831080615 21 210 0.0 0.0 0.00 0.00 0.00 99 1021.1
20260831080110 21 210 0.0 0.0 0.00 0.00 0.00 99 1021.0
20260831075606 21 210 0.0 0.0 0.00 0.00 0.00 99 1020.9
20260831075101 21 210 0.0 0.0 0.00 0.00 0.00 99 1020.9
20260831074600 21 210 0.0 0.0 0.00 0.00 0.00 99 1020.9
20260831074055 21 210 0.0 0.0 0.00 0.00 0.00 99 1020.6
20260831073550 21 210 0.0 0.0 0.00 0.00 0.00 99 1020.8
20260831073049 21 210 0.0 0.0 0.00 0.00 0.00 99 1020.9
20260831072544 21 210 0.0 0.0 0.00 0.00 0.00 99 1020.8
20260831072041 21 210 0.0 0.0 0.00 0.00 0.00 99 1020.9
20260831071540 21 210 0.0 0.0 0.00 0.00 0.00 99 1020.7
20260831071035 21 210 0.0 0.0 0.00 0.00 0.00 99 1020.9
20260831070534 21 210 0.0 0.0 0.00 0.00 0.00 99 1021.1
20260831070029 21 210 0.0 0.0 0.00 0.00 0.00 99 1021.0
20260831065527 21 210 0.0 0.0 0.00 0.00 0.00 99 1021.2
20260831065021 21 210 0.0 0.0 0.00 0.00 0.00 98 1020.9
20260831064517 22 210 0.0 0.0 0.00 0.00 0.00 98 1021.0
20260831064012 22 210 0.0 0.0 0.00 0.00 0.00 98 1021.1
20260831063508 22 210 0.0 0.0 0.00 0.00 0.00 97 1020.9
20260831063008 22 210 0.0 0.0 0.00 0.00 0.00 97 1021.0